Weather History for Lamoni, IA

Change the Weather History Date:

Monday, October 10, 2011

  Actual Average Record
Temperature  
Mean Temperature 64 °F 55 °F  
Max Temperature 70 °F 66 °F 90 °F (1963)
Min Temperature 57 °F 44 °F 28 °F (1964)
Degree Days  
Heating Degree Days 1 10  
Month to date heating degree days 24 89  
Since 1 July heating degree days 187 189  
Cooling Degree Days 0 1  
Month to date cooling degree days 23 10  
Year to date cooling degree days 1144 943  
Growing Degree Days 13 (Base 50)    
Moisture  
Dew Point 52 °F    
Average Humidity 73    
Maximum Humidity 93    
Minimum Humidity 53    
Precipitation  
Precipitation 0.00 in 0.10 in 1.27 in (1973)
Month to date precipitation 0.00 0.72  
Year to date precipitation 29.00  
Sea Level Pressure  
Sea Level Pressure 30.03 in    
Wind  
Wind Speed 6 mph (South)    
Max Wind Speed 14 mph    
Max Gust Speed 41 mph    
Visibility 10 miles    
Events      
T = Trace of Precipitation, MM = Missing Value Source: NWS Daily Summary

Daily Weather History Graph

Daily Weather History Graph

Search for Another Location

Airport:

Trip Planner

Search our weather history database for the weather conditions in past years. The results will help you decide how hot, cold, wet, or windy it might be!

Date:

Astronomy

Oct. 10, 2011 Rise Set
Actual Time 7:21 AM CDT 6:43 PM CDT
Civil Twilight 6:53 AM CDT 7:10 PM CDT
Nautical Twilight 6:22 AM CDT 7:42 PM CDT
Astronomical Twilight 5:50 AM CDT 8:14 PM CDT
Moon 5:47 PM CDT (10/10) 6:03 AM CDT (10/10)
Length of Visible Light 12h 17m
Length of Day
11h 22m
Waxing Gibbous, 98% of the Moon is Illuminated
Oct 10
Waxing Gibbous
Oct 11
Full
Oct 19
Last Quarter
Oct 26
New
Nov 2
First Quarter

Hourly Weather History & Observations

Time (CDT) Temp. Dew Point Humidity Pressure Visibility Wind Dir Wind Speed Gust Speed Precip Events Conditions
1:53 AM 61.0 °F 48.9 °F 64% 30.08 in 10.0 mi SE 6.9 mph - N/A   Clear
2:53 AM 60.1 °F 48.0 °F 64% 30.08 in 10.0 mi SSE 5.8 mph - N/A   Clear
3:53 AM 60.1 °F 48.0 °F 64% 30.06 in 10.0 mi SE 6.9 mph - N/A   Clear
4:53 AM 60.1 °F 48.0 °F 64% 30.06 in 10.0 mi SE 8.1 mph - N/A   Clear
5:53 AM 57.9 °F 46.9 °F 67% 30.06 in 10.0 mi SSE 4.6 mph - N/A   Clear
6:53 AM 59.0 °F 46.9 °F 64% 30.06 in 10.0 mi SSE 4.6 mph - N/A   Clear
8:53 AM 59.0 °F 46.9 °F 64% 30.07 in 10.0 mi SSE 8.1 mph - N/A   Partly Cloudy
9:53 AM 61.0 °F 48.0 °F 62% 30.08 in 10.0 mi SSE 9.2 mph - N/A   Scattered Clouds
10:53 AM 64.0 °F 48.9 °F 58% 30.06 in 10.0 mi South 8.1 mph - N/A   Clear
11:53 AM 66.9 °F 51.1 °F 57% 30.06 in 10.0 mi South 6.9 mph - N/A   Mostly Cloudy
12:53 PM 69.1 °F 52.0 °F 54% 30.04 in 10.0 mi SSE 6.9 mph - N/A   Overcast
1:53 PM 68.0 °F 53.1 °F 59% 30.02 in 10.0 mi SW 8.1 mph - N/A   Overcast
2:53 PM 69.1 °F 54.0 °F 58% 30.00 in 10.0 mi SSW 10.4 mph - N/A   Overcast
3:53 PM 69.1 °F 54.0 °F 58% 29.99 in 10.0 mi SSW 8.1 mph - N/A   Overcast
4:53 PM 69.1 °F 55.0 °F 61% 29.98 in 10.0 mi SSW 9.2 mph - N/A   Mostly Cloudy
5:53 PM 68.0 °F 55.0 °F 63% 29.98 in 10.0 mi South 6.9 mph - N/A   Mostly Cloudy
6:53 PM 64.9 °F 55.0 °F 70% 29.98 in 10.0 mi South 4.6 mph - N/A   Mostly Cloudy
7:53 PM 64.0 °F 55.0 °F 73% 29.98 in 10.0 mi South 4.6 mph - N/A   Clear
8:53 PM 62.1 °F 55.0 °F 78% 29.98 in 10.0 mi South 4.6 mph - N/A   Clear
9:53 PM 60.1 °F 55.0 °F 83% 29.99 in 10.0 mi Calm Calm - N/A   Mostly Cloudy
10:53 PM 57.9 °F 55.0 °F 90% 29.99 in 10.0 mi SSW 3.5 mph - N/A   Clear
11:53 PM 60.1 °F 55.9 °F 86% 29.98 in 10.0 mi SSW 4.6 mph - N/A   Overcast